Lexington Weather

Lexington, Massachusetts, USA

48°F
10/22/2019 3:11am 
  • Lexington Conditions: Haze, Overcast
  • Temperature: 47.5°F / 8.6°CWarmer 1.1°F than last hour.
  • Dew Point: 46.0°FIncreased 1.2°Fsince last hour.
  • Relative Humidity: 95%Increased 1.0% since last hour.
  • Wind: Calm, 10-min avg: Calm, gust: None
  • Barometer: 30.12 in Steady
  • Visibility: 1½ miles
  • Rain Today: 0.00 in
  •   

Regional Weather Roundup
for Boston, MA

        
000
ASUS41 KBOX 200800
RWRBOX

REGIONAL WEATHER ROUNDUP
NATIONAL WEATHER SERVICE BOSTON/NORTON MA
400 AM EDT SUN OCT 20 2019

NOTE:  "FAIR" INDICATES FEW OR NO CLOUDS BELOW 12,000 FEET WITH NO 
SIGNIFICANT WEATHER AND/OR OBSTRUCTIONS TO VISIBILITY.

MAZALL-200900-
EASTERN MASSACHUSETTS
  
CITY           SKY/WX    TMP DP  RH WIND       PRES   REMARKS
BOSTON         FAIR      47  36  65 W6        30.08R                  
BEVERLY        FAIR      36  33  89 CALM      30.07R                  
LAWRENCE       FAIR      35  33  92 S3        30.10R                  
BEDFORD        FAIR      34  29  82 W3        30.07R                  
BLUE HILL      NOT AVBL                                               
NORWOOD        FAIR      33  28  81 CALM      30.08R                  
MARSHFIELD     NOT AVBL                                               
PLYMOUTH       FAIR      35  34  96 CALM      30.06R                  
TAUNTON        FAIR      32  28  85 CALM      30.07R FOG              
NEW BEDFORD    FAIR      34  32  92 CALM      30.06R                  
$$

MAZALL-200900-
CAPE COD AND THE ISLANDS
  
CITY           SKY/WX    TMP DP  RH WIND       PRES   REMARKS
FALMOUTH       CLEAR     34  34 100 CALM      30.06R                  
HYANNIS        NOT AVBL                                               
CHATHAM        NOT AVBL                                               
PROVINCETOWN   FAIR      36  33  89 CALM        N/A                   
NANTUCKET      FAIR      41  39  93 CALM      30.05S                  
MARTHAS VNYRD  FAIR      31  29  92 CALM      30.05F                  
$$
 
MAZALL-200900-
CENTRAL AND WESTERN MASSACHUSETTS
  
CITY           SKY/WX    TMP DP  RH WIND       PRES   REMARKS
WORCESTER      FAIR      46  32  58 NE6       30.04F                  
FITCHBURG      FAIR      34  31  88 N3        30.08R                  
ORANGE         FAIR      30  28  92 CALM      30.07F                  
SPRINGFIELD    FAIR      31  30  97 CALM      30.05F                  
WESTFIELD      FAIR      33  30  88 W3        30.06F                  
NORTH ADAMS    FAIR      30  28  92 CALM      30.06F                  
PITTSFIELD     FAIR      31  28  89 CALM      30.03S                  
$$
 
RIZALL-200900-
RHODE ISLAND
  
CITY           SKY/WX    TMP DP  RH WIND       PRES   REMARKS
PROVIDENCE     FAIR      39  38  96 CALM      30.07S                  
NEWPORT        FAIR      44  40  85 CALM      30.05S                  
BLOCK ISLAND   FAIR      50  46  86 NW5       30.06R                  
SMITHFIELD     FAIR     N/A N/A N/A NE5       30.05F                  
WESTERLY       FAIR      39  37  92 CALM      30.06S                  
$$
 
CTZALL-200900-
CONNECTICUT
  
CITY           SKY/WX    TMP DP  RH WIND       PRES   REMARKS
BRADLEY INTL   FAIR      36  32  85 CALM      30.06F                  
HARTFORD       FAIR      38  36  92 CALM      30.06F                  
BRIDGEPORT     FAIR      45  42  89 N5        30.04F                  
DANBURY        FAIR      35  34  96 CALM      30.05F                  
GROTON         NOT AVBL                                               
NEW HAVEN      FAIR      42  38  85 N5        30.05F                  
CHESTER        NOT AVBL                                               
MERIDEN        FAIR      37  36  96 CALM      30.06F                  
WILLIMANTIC    MOCLDY    34  33  96 CALM      30.08S                  
OXFORD         FAIR      37  36  96 CALM      30.05S                  
$$

MEZ002-015-021-024-NHZ003-005-008-011-012-014-VTZ005-008-200900-
NORTHERN NEW ENGLAND
  
CITY           SKY/WX    TMP DP  RH WIND       PRES   REMARKS
PORTLAND ME    FAIR      34  31  88 W5        30.08R WCI  30          
BANGOR ME      FAIR      34  33  96 CALM      30.07R                  
CONCORD NH     FAIR      30  28  92 S3        30.09R                  
MANCHESTER NH  FAIR      37  34  89 CALM      30.07R                  
NASHUA NH      FAIR      33  33 100 NW6       30.09R WCI  28          
PORTSMOUTH NH  NOT AVBL                                               
JAFFREY NH     CLOUDY    31  29  92 CALM      30.06                   
KEENE NH       FAIR      28  28 100 CALM      30.09R                  
BURLINGTON VT  FAIR      34  31  88 E3        30.05R                  
MT. WASHINGTON PTCLDY    36   5  27 W21         N/A  WCI  24          
$$

NYZ052-076-200900-
EASTERN NEW YORK
  
CITY           SKY/WX    TMP DP  RH WIND       PRES   REMARKS
ALBANY         FOG       37  33  85 CALM      30.05F VSB 1/2          
NEW YORK CITY  MOCLDY    53  41  63 CALM      30.02F                  
$$
 
ANZALL-200900-
MARINE OBSERVATIONS
  
STATION/POSITION TIME  TEMP    WIND        PRES    VSBY  WAVE
                       AIR SEA DIR/SP/G                  HT/PER
                 (UTC) (F)     (DEG/KT/KT) (MB)    (MI)  (FT/S)
BOSTON BUOY      0650   54 56   20/  6/  8 1016.5          1/14
BUZZARDS BAY     0700   57     250/  7/  8 1018.2S
NANTUCKET SOUND  0730   55     270/  6/  8   N/A
MASS BAY-STELLWA NOT AVBL
ISLE OF SHOALS   0700   52      60/  9/ 10 1017.1F
S OF BLOCK IS    0730      60                N/A           2/ 9
$$

......................KEY.........................
  SKY/WX - SKY CONDITION/PRESENT WEATHER
  TMP    - TEMPERATURE IN FAHRENHEIT
  DWPT   - DEWPOINT IN FAHRENHEIT
  RH     - RELATIVE HUMIDITY IN PERCENT
  WIND   - DIRECTION AND SPEED IN MPH
  PRES   - MEAN SEA LEVEL PRESSURE IN INCHES OF HG
  WCI    - WIND CHILL INDEX
  VSB    - VISIBILITY IN MILES
  HX     - HEAT INDEX
  TC     - TEMPERATURE IN CELSIUS
  VRB    - VARIABLE WIND DIRECTION
  N/A    - NOT AVAILABLE
  
      

Other recent Regional Weather Roundups

Tue Oct 22, 2:10am

Tue Oct 22, 2:00am

Tue Oct 22, 1:10am

Tue Oct 22, 1:00am

Tue Oct 22, 12:10am

Tue Oct 22, 12:00am

Mon Oct 21, 11:10pm

Mon Oct 21, 11:00pm

Mon Oct 21, 10:10pm

Mon Oct 21, 10:01pm

Mon Oct 21, 9:10pm

Mon Oct 21, 9:00pm

Mon Oct 21, 8:10pm

Mon Oct 21, 8:00pm

Mon Oct 21, 7:10pm

Mon Oct 21, 7:01pm

Mon Oct 21, 6:10pm

Mon Oct 21, 6:01pm

Mon Oct 21, 5:10pm

Mon Oct 21, 5:01pm

Mon Oct 21, 4:10pm

Mon Oct 21, 4:00pm

Mon Oct 21, 3:10pm

Mon Oct 21, 3:01pm

Mon Oct 21, 2:10pm

Mon Oct 21, 2:00pm

Mon Oct 21, 1:10pm

Mon Oct 21, 1:01pm

Mon Oct 21, 12:10pm

Mon Oct 21, 12:00pm

Mon Oct 21, 11:10am

Mon Oct 21, 11:00am

Mon Oct 21, 10:10am

Mon Oct 21, 10:00am

Mon Oct 21, 9:10am

Mon Oct 21, 9:00am

Mon Oct 21, 7:10am

Mon Oct 21, 7:00am

Mon Oct 21, 6:10am

Mon Oct 21, 6:00am

Mon Oct 21, 5:10am

Mon Oct 21, 5:00am

Mon Oct 21, 4:10am

Mon Oct 21, 4:00am

Mon Oct 21, 3:10am

Mon Oct 21, 3:00am

Mon Oct 21, 2:10am

Mon Oct 21, 2:01am

Mon Oct 21, 1:10am

Mon Oct 21, 1:00am

Mon Oct 21, 12:10am

Mon Oct 21, 12:00am

Sun Oct 20, 11:10pm

Sun Oct 20, 11:00pm

Sun Oct 20, 10:10pm

Sun Oct 20, 10:00pm

Sun Oct 20, 9:10pm

Sun Oct 20, 9:01pm

Sun Oct 20, 8:10pm

Sun Oct 20, 8:00pm

Sun Oct 20, 7:10pm

Sun Oct 20, 7:01pm

Sun Oct 20, 6:10pm

Sun Oct 20, 6:00pm

Sun Oct 20, 5:10pm

Sun Oct 20, 5:00pm

Sun Oct 20, 4:10pm

Sun Oct 20, 4:00pm

Sun Oct 20, 3:10pm

Sun Oct 20, 3:00pm

Sun Oct 20, 2:10pm

Sun Oct 20, 2:01pm

Sun Oct 20, 1:10pm

Sun Oct 20, 1:01pm

Sun Oct 20, 12:10pm

Sun Oct 20, 12:00pm

Sun Oct 20, 11:10am

Sun Oct 20, 11:00am

Sun Oct 20, 10:10am

Sun Oct 20, 10:00am

Sun Oct 20, 9:10am

Sun Oct 20, 9:00am

Sun Oct 20, 8:10am

Sun Oct 20, 8:00am

Sun Oct 20, 7:10am

Sun Oct 20, 7:00am

Sun Oct 20, 6:10am

Sun Oct 20, 6:00am

Sun Oct 20, 5:10am

Sun Oct 20, 5:00am

Sun Oct 20, 4:10am

Sun Oct 20, 3:10am

Sun Oct 20, 3:00am

Sun Oct 20, 2:10am

Sun Oct 20, 2:00am

Sun Oct 20, 1:10am

Sun Oct 20, 1:00am

Sun Oct 20, 12:10am

Sun Oct 20, 12:00am

Sat Oct 19, 11:10pm

Sat Oct 19, 11:00pm

Sat Oct 19, 10:10pm

Sat Oct 19, 10:00pm

Sat Oct 19, 9:10pm

Sat Oct 19, 9:00pm

Sat Oct 19, 8:10pm

Sat Oct 19, 8:00pm

Sat Oct 19, 7:10pm

Sat Oct 19, 7:00pm

Sat Oct 19, 6:10pm

Sat Oct 19, 6:00pm

Sat Oct 19, 5:10pm

Sat Oct 19, 5:00pm

Sat Oct 19, 4:10pm

Sat Oct 19, 4:00pm

Sat Oct 19, 3:10pm

Sat Oct 19, 3:01pm

Sat Oct 19, 2:10pm

Sat Oct 19, 2:00pm

Sat Oct 19, 1:10pm

Sat Oct 19, 1:01pm

Sat Oct 19, 12:10pm

Sat Oct 19, 12:00pm

Sat Oct 19, 11:10am

Sat Oct 19, 11:01am

Sat Oct 19, 10:10am

Sat Oct 19, 10:00am

Sat Oct 19, 9:10am

Sat Oct 19, 9:00am

Sat Oct 19, 8:10am

Sat Oct 19, 8:00am

Sat Oct 19, 7:10am

Sat Oct 19, 7:00am

Sat Oct 19, 6:10am

Sat Oct 19, 6:00am

Sat Oct 19, 5:10am

Sat Oct 19, 5:00am

Sat Oct 19, 4:10am

Sat Oct 19, 4:00am

Sat Oct 19, 3:10am

Sat Oct 19, 3:00am

Meta data:

ID: 4238167f-1e51-4162-bc9a-b059627efe61
Link: https://api.weather.gov/products/4238167f-1e51-4162-bc9a-b059627efe61